TimeMDT,TemperatureF,Dew PointF,Humidity,Sea Level PressureIn,VisibilityMPH,Wind Direction,Wind SpeedMPH,Gust SpeedMPH,PrecipitationIn,Events,Conditions,WindDirDegrees,DateUTC
12:53 AM,54.0,48.0,80,29.82,10.0,West,8.1,-,N/A,,Clear,270,2013-06-26 06:53:00
1:53 AM,55.9,46.9,72,29.81,10.0,SW,12.7,-,N/A,,Clear,220,2013-06-26 07:53:00
2:53 AM,54.0,46.0,75,29.83,10.0,SW,9.2,-,N/A,,Clear,230,2013-06-26 08:53:00
3:53 AM,52.0,46.0,80,29.84,10.0,SW,10.4,-,N/A,,Partly Cloudy,220,2013-06-26 09:53:00
4:53 AM,54.0,46.0,75,29.85,10.0,SSW,9.2,-,N/A,,Clear,210,2013-06-26 10:53:00
5:53 AM,55.0,46.0,72,29.86,10.0,SSW,10.4,-,N/A,,Scattered Clouds,210,2013-06-26 11:53:00
6:53 AM,57.9,46.9,67,29.89,10.0,SSW,10.4,-,N/A,,Clear,210,2013-06-26 12:53:00
7:53 AM,61.0,46.9,60,29.90,10.0,SW,12.7,-,N/A,,Clear,220,2013-06-26 13:53:00
8:53 AM,63.0,48.0,58,29.90,10.0,SW,13.8,-,N/A,,Clear,220,2013-06-26 14:53:00
9:53 AM,64.9,46.9,52,29.91,10.0,SW,15.0,-,N/A,,Clear,230,2013-06-26 15:53:00
10:53 AM,68.0,46.9,47,29.92,10.0,SW,20.7,29.9,N/A,,Clear,220,2013-06-26 16:53:00
11:53 AM,71.1,45.0,39,29.92,10.0,SW,21.9,31.1,N/A,,Clear,230,2013-06-26 17:53:00
12:53 PM,72.0,45.0,38,29.93,10.0,SSW,23.0,28.8,N/A,,Partly Cloudy,210,2013-06-26 18:53:00
1:53 PM,75.0,44.1,33,29.91,10.0,SW,17.3,27.6,N/A,,Clear,230,2013-06-26 19:53:00
2:53 PM,77.0,41.0,28,29.90,10.0,West,21.9,33.4,N/A,,Clear,260,2013-06-26 20:53:00
3:53 PM,77.0,39.9,26,29.91,10.0,WSW,25.3,32.2,N/A,,Mostly Cloudy,250,2013-06-26 21:53:00
4:53 PM,78.1,39.9,25,29.91,10.0,WSW,20.7,32.2,N/A,,Mostly Cloudy,240,2013-06-26 22:53:00
5:53 PM,75.9,41.0,29,29.93,10.0,West,17.3,26.5,N/A,,Overcast,260,2013-06-26 23:53:00
6:53 PM,72.0,42.1,34,29.95,10.0,WSW,19.6,27.6,N/A,,Clear,250,2013-06-27 00:53:00
7:53 PM,70.0,44.1,39,29.96,10.0,SW,17.3,23.0,N/A,,Clear,220,2013-06-27 01:53:00
8:53 PM,66.9,43.0,42,29.98,10.0,SW,13.8,-,N/A,,Partly Cloudy,220,2013-06-27 02:53:00
9:53 PM,63.0,43.0,48,30.01,10.0,SSW,12.7,-,N/A,,Mostly Cloudy,200,2013-06-27 03:53:00
10:53 PM,60.1,44.1,55,30.02,10.0,SW,10.4,-,N/A,,Clear,230,2013-06-27 04:53:00
11:53 PM,55.0,44.1,67,30.04,10.0,WSW,6.9,-,N/A,,Clear,250,2013-06-27 05:53:00